Voltar ao catálogo

QIANFAN-143

AtivoComunicaçõesPO
NORAD 69089·PAYLOAD·🇨🇳 China

Lançado May 12, 2026 de Taiyuan Satellite Launch Center

Loading…

Próximas Passagens (próximas 24 horas)

TLE

AtualizadoSource: Space-Track

Época: Sep 14, 2026, 14:10 UTC

1 69089U 26104S   26257.59088379  .00000101  00000-0  13797-3 0  9998
2 69089  88.9914 332.3235 0001981 106.1926 253.9443 13.51026711 17249

Acompanhe QIANFAN-143 em tempo real com AllMySat

Download on the App Store